Change the Weather History Date:

Saturday, October 1, 2011

  Actual Average Record
Temperature  
Mean Temperature 81 °F -  
Max Temperature 89 °F 84 °F 91 °F (1997)
Min Temperature 73 °F 73 °F 69 °F (2006)
Cooling Degree Days 16    
Growing Degree Days 31 (Base 50)    
Moisture  
Dew Point 73 °F    
Average Humidity 84    
Maximum Humidity 100    
Minimum Humidity 52    
Precipitation  
Precipitation 0.20 in - - ()
Sea Level Pressure  
Sea Level Pressure 29.82 in    
Wind  
Wind Speed 4 mph ()    
Max Wind Speed 17 mph    
Max Gust Speed -    
Visibility 6.4 miles    
Events Rain , Thunderstorm    
Averages and records for this station are not official NWS values.
T = Trace of Precipitation, MM = Missing Value Source: Averaged Metar Reports

Daily Weather History Graph

Daily Weather History Graph

Search for Another Location

Airport or City:

Trip Planner

Search our weather history database for the weather conditions in past years. The results will help you decide how hot, cold, wet, or windy it might be!

Date:

Astronomy

Oct. 01, 2011 Rise Set
Actual Time 5:30 AM CST 5:32 PM CST
Civil Twilight 5:09 AM CST 5:53 PM CST
Nautical Twilight 4:45 AM CST 6:18 PM CST
Astronomical Twilight 4:21 AM CST 6:42 PM CST
Moon 9:37 AM CST (10/1) 9:28 PM CST (10/1)
Length of Visible Light 12h 43m
Length of Day
12h 01m
Waxing Crescent, 25% of the Moon is Illuminated
Oct 1
Waxing Crescent
Oct 3
First Quarter
Oct 11
Full
Oct 19
Last Quarter
Oct 26
New

Hourly Weather History & Observations

Time (CST) Temp. Heat Index Dew Point Humidity Pressure Visibility Wind Dir Wind Speed Gust Speed Precip Events Conditions
6:00 AM 74 °F - 72 °F 94% 29.76 in 2 mi SE 2.3 mph - -   Mist
6:00 AM 73.4 °F - 73.4 °F 100% 29.81 in 6.2 mi SE 2.3 mph - N/A   Mostly Cloudy
6:40 AM 75.2 °F - 73.4 °F 94% 29.82 in 1.2 mi SE 5.8 mph - N/A   Mostly Cloudy
7:00 AM 77.0 °F - 75.2 °F 94% 29.84 in 6.2 mi SSE 5.8 mph - N/A   Mostly Cloudy
8:00 AM 77.0 °F - 75.2 °F 94% 29.87 in 6.2 mi SE 5.8 mph - N/A   Mostly Cloudy
9:00 AM 82 °F - 77 °F 81% 29.84 in 12 mi ENE 2.3 mph - -   Partly Cloudy
9:00 AM 82.4 °F 90.9 °F 77.0 °F 84% 29.87 in 6.2 mi ENE 2.3 mph - N/A   Mostly Cloudy
10:00 AM 84.2 °F 92.3 °F 75.2 °F 74% 29.88 in 6.2 mi North 3.5 mph - N/A   Mostly Cloudy
11:00 AM 87.8 °F 97.6 °F 75.2 °F 66% 29.87 in 6.2 mi ESE 2.3 mph - N/A   Mostly Cloudy
12:00 PM 89 °F - 74 °F 52% 29.84 in 12 mi ENE 3.5 mph - -   Overcast
12:00 PM 89.6 °F 98.2 °F 73.4 °F 59% 29.83 in 6.2 mi ENE 3.5 mph - N/A   Scattered Clouds
1:00 PM 86.0 °F 95.1 °F 75.2 °F 70% 29.81 in 6.2 mi West 6.9 mph - N/A   Partly Cloudy
1:05 PM 80.6 °F 84.6 °F 71.6 °F 74% 29.82 in 6.2 mi West 6.9 mph - N/A Rain , Thunderstorm Thunderstorms and Rain
1:20 PM 75.2 °F - 69.8 °F 83% 29.79 in 1.2 mi East 10.4 mph - N/A Rain , Thunderstorm Thunderstorms and Rain
1:35 PM 73.4 °F - 69.8 °F 88% 29.79 in 2.5 mi NE 17.3 mph - N/A Rain , Thunderstorm Thunderstorms and Rain
2:00 PM 73.4 °F - 69.8 °F 88% 29.77 in 6.2 mi NNW 6.9 mph - N/A Rain Light Rain
3:00 PM 76 °F - 73 °F 86% 29.76 in 12 mi WSW 6.9 mph - -   Overcast
3:00 PM 75.2 °F - 73.4 °F 94% 29.79 in 6.2 mi WSW 6.9 mph - N/A   Mostly Cloudy
4:00 PM 77.0 °F - 73.4 °F 89% 29.79 in 6.2 mi Calm Calm - N/A   Mostly Cloudy
5:00 PM 77.0 °F - 73.4 °F 89% 29.79 in 6.2 mi NNE 3.5 mph - N/A   Mostly Cloudy
6:00 PM 76 °F - 73 °F 88% 29.76 in 12 mi NNE 3.5 mph - -   Partly Cloudy
6:00 PM 75.2 °F - 73.4 °F 94% 29.81 in 6.2 mi NNE 3.5 mph - N/A   Mostly Cloudy
7:00 PM 77.0 °F - 73.4 °F 89% 29.84 in 6.2 mi East 4.6 mph - N/A Rain Light Rain
8:00 PM 75.2 °F - 73.4 °F 94% 29.86 in 6.2 mi East 8.1 mph - N/A   Mostly Cloudy